Weather History for Roanoke, VA

Change the Weather History Date:

Sunday, November 3, 2013

  Actual Average Record
Temperature  
Mean Temperature 48 °F 52 °F  
Max Temperature 58 °F 64 °F 82 °F (1974)
Min Temperature 38 °F 41 °F 23 °F (1926)
Degree Days  
Heating Degree Days 17 13  
Month to date heating degree days 25 37  
Since 1 July heating degree days 273 334  
Cooling Degree Days 0 0  
Month to date cooling degree days 2 0  
Year to date cooling degree days 1227 1207  
Moisture  
Dew Point 31 °F    
Average Humidity 52    
Maximum Humidity 70    
Minimum Humidity 33    
Precipitation  
Precipitation 0.00 in 0.12 in 2.75 in (1947)
Month to date precipitation 0.04 0.35  
Year to date precipitation 46.02 35.26  
Snow  
Snow 0.00 in - - ()
Month to date snowfall 0.0  
Since 1 July snowfall 0.0  
Since 1 September snowfall 0.0  
Snow Depth 0.00 in    
Sea Level Pressure  
Sea Level Pressure 30.20 in    
Wind  
Wind Speed 8 mph (NW)    
Max Wind Speed 22 mph    
Max Gust Speed 24 mph    
Visibility 10 miles    
Events      
T = Trace of Precipitation, MM = Missing Value Source: NWS Daily Summary

Daily Weather History Graph

Daily Weather History Graph

Search for Another Location

Airport:

Trip Planner

Search our weather history database for the weather conditions in past years. The results will help you decide how hot, cold, wet, or windy it might be!

Date:

Astronomy

Nov. 03, 2013 Rise Set
Actual Time 6:46 AM EST 5:19 PM EST
Civil Twilight 6:19 AM EST 5:46 PM EST
Nautical Twilight 5:48 AM EST 6:17 PM EST
Astronomical Twilight 5:18 AM EST 6:48 PM EST
Moon 6:48 AM EST (11/3) 5:34 PM EST (11/3)
Length of Visible Light 11h 27m
Length of Day
10h 32m
New Moon, 0% of the Moon is Illuminated
Nov 3
New Moon
Nov 10
First Quarter
Nov 17
Full
Nov 25
Last Quarter
Dec 2
New

Hourly Weather History & Observations

Time (EST) Temp. Windchill Dew Point Humidity Pressure Visibility Wind Dir Wind Speed Gust Speed Precip Events Conditions
12:54 AM 50.0 °F - 33.1 °F 52% 29.99 in 10.0 mi NW 5.8 mph - N/A   Mostly Cloudy
1:54 AM 48.0 °F - 33.1 °F 56% 30.00 in 10.0 mi NW 6.9 mph - N/A   Mostly Cloudy
1:54 AM 46.9 °F - 33.1 °F 59% 30.01 in 10.0 mi WNW 4.6 mph - N/A   Clear
2:54 AM 48.0 °F - 32.0 °F 54% 30.02 in 10.0 mi NW 11.5 mph 17.3 mph N/A   Clear
3:54 AM 46.9 °F - 33.1 °F 59% 30.05 in 10.0 mi NW 12.7 mph 24.2 mph N/A   Mostly Cloudy
4:54 AM 48.0 °F - 33.1 °F 56% 30.08 in 10.0 mi NW 8.1 mph - N/A   Mostly Cloudy
5:54 AM 48.0 °F - 33.1 °F 56% 30.11 in 10.0 mi WNW 6.9 mph - N/A   Mostly Cloudy
6:54 AM 46.0 °F 41.9 °F 32.0 °F 58% 30.14 in 10.0 mi WNW 8.1 mph - N/A   Partly Cloudy
7:54 AM 48.9 °F - 33.1 °F 54% 30.19 in 10.0 mi WNW 10.4 mph - N/A   Mostly Cloudy
8:54 AM 52.0 °F - 34.0 °F 50% 30.22 in 10.0 mi North 9.2 mph - N/A   Mostly Cloudy
9:54 AM 51.1 °F - 33.1 °F 50% 30.23 in 10.0 mi NNW 15.0 mph 21.9 mph N/A   Mostly Cloudy
10:54 AM 52.0 °F - 30.9 °F 45% 30.25 in 10.0 mi NW 16.1 mph 21.9 mph N/A   Mostly Cloudy
11:54 AM 53.1 °F - 32.0 °F 45% 30.25 in 10.0 mi NNW 11.5 mph - N/A   Mostly Cloudy
12:54 PM 57.0 °F - 30.9 °F 37% 30.23 in 10.0 mi NW 11.5 mph - N/A   Mostly Cloudy
1:54 PM 55.9 °F - 30.0 °F 37% 30.25 in 10.0 mi NNW 11.5 mph 17.3 mph N/A   Mostly Cloudy
2:54 PM 55.9 °F - 30.0 °F 37% 30.25 in 10.0 mi North 4.6 mph - N/A   Scattered Clouds
3:54 PM 57.0 °F - 28.9 °F 34% 30.25 in 10.0 mi North 10.4 mph - N/A   Scattered Clouds
4:54 PM 53.1 °F - 30.0 °F 41% 30.26 in 10.0 mi NNW 6.9 mph - N/A   Partly Cloudy
5:54 PM 50.0 °F - 30.0 °F 46% 30.29 in 10.0 mi NNW 8.1 mph - N/A   Clear
6:54 PM 50.0 °F - 28.9 °F 44% 30.34 in 10.0 mi Calm Calm - N/A   Clear
7:54 PM 46.0 °F 43.9 °F 28.9 °F 51% 30.36 in 10.0 mi NW 4.6 mph - N/A   Clear
8:54 PM 48.0 °F - 30.0 °F 50% 30.38 in 10.0 mi Calm Calm - N/A   Clear
9:54 PM 43.0 °F 41.3 °F 30.9 °F 62% 30.40 in 10.0 mi NNW 3.5 mph - N/A   Clear
10:54 PM 39.9 °F - 30.9 °F 70% 30.41 in 10.0 mi Calm Calm - N/A   Clear